Location: PSU-Greenbush Astrophysical Observatory
(37.5140°N, 94.9880°W)
Time: 21:28:36
(UTC-06:00)

Altair - Pass Details

Date: 25 January 2020
Orbit: 1502 x 1682 km, 47.2° (Epoch: 18 February)

Event Time Altitude Azimuth Distance (km) Brightness Sun altitude
Rises 05:35:35 0° 171° (S) 4,806 10.3 -22.4°
Reaches altitude 10° 05:41:00 10° 146° (SSE) 3,864 10.1 -21.4°
Maximum altitude 05:45:09 13° 121° (ESE) 3,623 10.4 -20.6°
Drops below altitude 10° 05:49:20 10° 96° (E) 3,917 10.9 -19.7°
Sets 05:54:51 0° 72° (ENE) 4,929 11.2 -18.7°
